Temperature
8 9 9 9 9 9 9 9 10 10 10 10 10 10 10 9 8 9 9 8 8 7 7 7 8 8 8 8 9 9 9 9 10 10 10 10 10 10 10 10 10 10 10 11
9 9 8 9 8 8 9 9 9 9 9 9 9 9 9 9 8 8 8 8 7 7 7 7 7 8 8 8 8 9 9 9 9 9 9 10 10 10 10 9 10 10 10 10
8 8 8 8 8 8 9 9 9 9 9 9 9 9 9 9 8 8 7 7 7 7 6 6 7 7 8 8 8 8 8 9 9 9 9 9 9 9 9 9 9 9 9 10
7 7 7 8 8 8 8 8 8 8 9 9 9 10 10 10 9 8 7 7 6 6 6 6 6 7 7 8 8 8 8 8 8 8 8 8 9 9 9 9 9 9 9 9
7 7 7 8 8 8 8 8 8 8 9 9 9 9 11 10 9 9 8 7 6 6 6 6 6 6 7 7 7 7 8 8 8 8 8 8 8 8 8 8 8 8 8 8
6 6 6 7 7 7 7 8 8 8 9 8 9 9 10 9 9 9 8 7 6 6 6 6 6 6 6 6 7 7 7 7 7 7 7 7 7 7 8 8 8 8 8 8
7 7 6 6 7 7 8 8 9 9 9 9 8 9 9 9 8 8 8 7 6 5 5 5 6 6 6 6 7 6 6 7 7 7 7 7 7 7 7 7 7 7 7 8
7 7 6 6 6 6 7 8 8 9 9 10 8 8 9 7 7 6 6 6 5 5 5 5 5 6 6 6 6 6 6 6 6 6 6 7 7 7 7 7 7 7 7 7
7 7 6 5 5 6 7 7 7 7 7 8 9 8 8 7 7 6 6 5 4 4 4 4 5 5 6 6 6 6 6 6 6 6 6 6 6 6 6 6 6 6 6 6
5 5 6 5 6 6 6 6 7 7 8 9 9 8 8 7 6 6 5 5 4 3 3 3 4 5 5 5 5 5 5 5 5 5 6 6 6 6 6 6 6 6 6 6
5 5 6 6 5 6 5 5 6 7 7 9 9 9 7 6 6 5 5 4 3 3 3 3 3 4 5 5 5 5 5 5 5 5 5 5 5 5 6 6 6 6 6 6
4 5 5 5 5 4 5 5 6 7 6 7 8 8 6 5 5 4 4 3 2 2 2 3 3 4 4 4 4 4 4 4 4 4 4 5 5 5 5 5 5 5 5 5
4 4 5 6 5 4 4 4 4 5 6 7 8 7 6 5 4 3 3 2 2 2 2 2 3 3 4 4 4 4 4 4 4 4 4 4 4 4 5 5 5 5 5 5
4 3 5 6 6 5 4 4 4 4 6 6 6 6 6 5 4 3 2 2 2 2 1 2 2 3 3 3 3 3 3 4 3 3 4 4 4 4 4 4 4 4 4 4
4 3 3 3 3 3 4 4 4 4 5 6 6 5 6 5 4 3 2 1 1 1 1 1 2 2 3 3 3 3 3 3 3 3 3 3 3 3 4 4 4 4 4 4
3 3 3 3 3 3 3 3 3 3 4 4 5 5 5 4 3 2 2 1 1 1 1 1 1 1 2 2 3 3 3 3 3 3 3 3 3 3 3 3 3 3 3 3
2 2 3 4 3 3 4 3 3 3 3 4 4 5 3 3 2 2 1 1 0 0 0 0 1 1 1 2 2 2 2 2 2 2 2 2 2 2 2 3 3 3 3 3
1 2 2 3 3 4 5 3 3 2 2 2 3 3 2 2 1 0 0 -0 -0 0 0 0 1 1 1 1 1 2 2 2 2 2 2 2 2 2 2 2 2 2 2 2
1 2 2 3 4 4 4 2 2 2 2 2 2 2 1 0 0 1 0 -0 -0 -0 0 0 0 1 1 1 1 1 1 1 1 1 1 1 1 1 1 1 1 2 2 2
0 1 2 2 3 4 5 2 0 2 3 2 1 1 0 -0 2 2 0 -0 -0 -0 -0 -0 0 0 0 1 1 1 1 1 1 1 1 1 1 1 1 1 1 1 1 1
0 0 1 2 3 4 3 0 1 3 4 1 1 0 -0 0 1 -0 -1 -1 -1 -1 -1 -0 -0 -0 -0 0 0 0 0 0 0 0 0 0 0 0 -0 -0 0 0 0 0
1 1 1 1 2 3 1 0 1 2 1 0 -0 -0 -1 -1 -1 -1 -1 -1 -1 -1 -1 -1 -1 -1 -1 -0 -0 -0 -0 -0 -0 -0 -0 -0 -0 -0 -1 -1 -0 -0 -0 -0
0 1 2 2 3 1 -0 0 0 -0 -0 -1 -1 -1 -1 -2 -2 -2 -2 -2 -2 -2 -2 -1 -1 -1 -1 -1 -1 -1 -1 -1 -1 -1 -1 -1 -1 -1 -1 -1 -1 -1 -1 -1
-0 -1 -0 -0 1 0 -1 -1 -1 -1 -1 -1 -1 -1 -2 -2 -2 -2 -2 -2 -2 -2 -2 -2 -2 -2 -2 -2 -2 -2 -1 -1 -1 -1 -1 -1 -2 -2 -2 -2 -1 -1 -1 -1
0 -1 -1 -0 0 -1 -1 -1 -1 -1 -1 -1 -1 -2 -2 -2 -2 -2 -2 -3 -2 -2 -2 -2 -2 -2 -2 -2 -2 -2 -2 -2 -2 -2 -2 -2 -2 -2 -2 -2 -2 -2 -2 -2
-1 -1 0 2 1 0 -0 -1 -1 -1 -2 -2 -2 -2 -2 -2 -2 -3 -3 -3 -3 -3 -3 -3 -3 -3 -3 -3 -3 -3 -2 -3 -2 -3 -3 -3 -3 -3 -3 -3 -2 -2 -2 -2
Wind_Speed
2 1 1 1 2 3 3 3 4 5 2 2 4 6 5 3 4 4 4 3 3 3 2 2 2 2 2 2 2 3 3 2 2 2 2 1 1 2 2 2 2 2 2 2
1 1 1 0 0 1 3 2 3 3 1 1 2 4 4 4 4 4 4 3 3 2 1 1 1 1 1 1 1 2 2 2 2 1 1 1 1 1 1 1 2 2 2 2
2 2 1 1 0 1 2 2 3 3 2 1 0 2 3 3 2 2 3 3 3 3 3 2 1 1 1 1 1 1 1 2 1 1 2 2 2 1 1 1 1 1 1 2
2 2 1 1 1 1 2 2 3 3 2 1 1 2 3 3 2 2 3 3 3 3 3 2 2 2 2 1 1 1 1 1 1 2 2 2 1 1 1 1 1 1 1 2
2 2 1 1 3 2 2 3 2 2 2 1 2 3 2 3 3 4 4 4 4 4 3 2 2 2 1 1 1 1 1 1 1 1 1 1 1 0 1 1 2 1 1 1
1 1 2 3 4 1 1 1 0 1 1 2 2 3 2 2 4 4 3 3 3 3 3 2 2 1 1 1 1 1 1 1 1 1 1 1 1 1 1 1 1 1 0 0
2 1 2 2 2 1 1 1 0 0 1 2 1 2 2 1 2 3 3 3 3 2 3 3 2 1 1 1 1 1 1 1 1 1 1 1 1 1 1 1 1 1 0 0
2 2 2 3 2 1 1 1 1 1 2 2 1 3 1 2 2 2 2 2 1 1 1 2 2 2 2 2 2 2 2 1 1 1 1 1 1 1 1 1 1 1 1 1
1 2 2 3 2 1 0 1 2 1 1 2 3 2 2 2 3 3 2 1 1 1 1 1 1 2 2 2 2 2 2 2 1 1 1 1 1 1 1 1 1 1 1 1
1 2 3 3 0 3 2 0 1 1 2 2 3 3 2 3 4 4 4 3 2 2 2 2 1 1 1 2 2 2 2 2 2 1 1 1 1 1 1 1 1 1 1 1
1 1 2 1 1 1 1 1 1 1 2 2 3 2 1 2 4 4 4 4 3 3 2 2 2 2 1 1 1 2 2 2 1 2 1 1 1 1 2 2 2 1 1 1
1 1 2 2 1 2 2 2 2 2 2 2 2 2 1 2 3 4 5 4 4 3 3 2 2 1 1 1 1 1 1 1 2 2 2 2 2 2 2 2 2 2 2 2
2 2 1 1 2 1 1 2 2 1 1 2 3 2 1 2 4 5 5 5 4 3 3 2 2 1 1 1 1 1 1 1 1 1 2 2 2 2 2 2 2 2 2 2
2 2 4 5 4 2 3 4 4 3 3 4 5 7 7 7 6 6 5 5 4 3 3 3 2 2 2 2 2 2 2 1 1 1 2 2 2 2 2 2 2 2 2 2
2 2 3 6 7 5 6 6 6 7 6 6 7 8 9 8 7 6 5 5 5 4 4 3 3 3 2 2 2 3 3 2 2 2 2 2 2 2 2 2 2 2 2 2
1 2 2 4 5 5 7 8 8 8 7 9 9 9 8 7 6 5 5 5 4 5 5 4 4 3 3 3 3 3 3 2 2 2 2 2 2 2 2 3 2 2 2 2
2 3 2 3 3 3 6 7 7 5 6 6 8 8 6 6 6 6 5 5 5 6 5 5 4 4 3 3 3 3 3 2 2 2 2 2 2 2 3 3 3 3 3 3
3 3 2 2 2 5 2 1 3 6 5 6 6 6 6 7 6 5 4 5 6 6 5 5 4 4 3 3 3 3 2 2 2 2 2 2 2 3 3 3 3 3 3 3
3 4 2 2 3 6 4 2 2 5 6 5 6 6 5 5 4 4 3 5 5 5 4 4 4 3 3 2 2 1 1 1 2 2 2 2 3 3 3 3 3 3 3 3
1 2 3 3 4 5 2 0 1 2 5 2 4 5 4 3 4 4 4 5 5 4 4 3 3 2 2 2 1 1 1 2 2 3 3 3 3 3 3 3 4 3 3 3
2 2 4 5 5 6 1 1 3 4 3 1 3 4 4 4 5 4 4 4 3 3 3 3 2 1 2 2 1 1 1 2 3 3 3 3 3 3 3 3 3 3 3 3
5 4 5 4 6 6 2 4 5 4 3 3 4 4 5 5 4 4 4 3 3 3 3 2 2 2 2 2 1 1 2 3 3 3 3 3 3 2 2 3 3 2 2 2
7 6 4 6 6 3 4 4 3 2 3 4 4 4 4 4 4 4 3 3 3 3 2 2 2 2 2 2 2 2 3 4 3 3 3 3 3 2 2 2 3 2 2 2
5 4 5 6 8 6 5 5 4 4 5 4 4 4 3 4 4 3 3 3 3 2 2 2 2 2 2 3 3 3 4 3 3 3 3 3 2 3 2 2 2 2 2 2
5 6 5 8 7 5 6 6 6 5 5 4 3 3 4 4 4 3 3 3 2 2 2 2 2 3 3 3 3 3 3 3 3 3 3 3 3 3 3 3 3 3 3 3
7 8 7 7 5 5 5 4 5 5 6 5 4 4 3 3 4 3 3 3 3 3 2 2 3 4 4 3 4 3 3 3 3 3 3 3 3 3 3 3 3 3 4 5
Wind_Direction
14 111 122 223 239 272 259 251 269 278 290 245 230 238 238 207 202 210 204 194 189 189 172 145 129 117 115 92 87 85 89 84 80 86 89 90 87 86 72 58 52 56 69 98
105 67 10 156 291 265 242 241 300 305 331 265 245 260 245 215 214 222 215 213 211 203 188 163 126 115 138 134 100 85 89 93 81 76 94 100 106 113 92 67 58 39 48 85
59 30 27 140 141 294 255 241 286 292 326 133 237 261 207 207 198 203 221 225 225 221 215 205 197 182 176 157 92 94 117 97 89 91 85 84 77 93 105 80 53 31 44 60
30 358 355 103 342 304 296 302 283 264 222 224 238 233 207 206 213 238 235 232 234 230 224 210 204 206 201 186 125 125 103 101 98 101 114 124 134 149 169 165 129 78 75 58
22 356 339 331 322 304 292 310 278 234 188 227 222 217 227 193 245 255 241 228 231 229 222 216 214 213 195 162 105 97 113 103 101 121 136 147 147 104 90 129 134 119 96 64
343 331 343 331 329 296 286 306 168 159 180 218 247 225 232 227 258 265 245 238 236 232 227 225 224 188 152 116 84 91 137 122 158 173 160 169 174 144 116 120 144 130 106 89
9 43 14 350 11 58 10 63 48 169 211 233 183 236 247 282 268 263 253 239 242 229 219 217 214 194 171 167 155 180 178 168 182 182 187 203 204 195 195 205 199 182 216 277
350 350 9 360 350 298 257 258 269 264 237 273 215 227 254 8 336 312 284 253 245 259 237 226 223 214 200 191 187 197 194 194 195 195 202 206 206 213 223 238 229 219 230 245
319 311 2 359 344 319 34 44 320 275 251 234 226 236 288 0 6 359 345 346 332 323 326 273 246 238 216 203 199 202 201 205 210 214 211 217 217 224 232 246 259 245 243 264
292 280 319 329 327 34 356 78 204 203 216 236 231 246 269 322 342 358 355 340 330 331 334 325 312 305 279 230 209 205 208 208 214 224 227 234 242 247 248 237 259 269 253 242
260 242 307 341 305 277 88 93 269 224 291 258 239 253 8 316 332 336 338 338 325 319 319 318 320 323 330 322 220 202 213 215 222 233 244 248 251 257 248 244 251 262 258 233
253 243 279 282 289 285 262 258 239 240 240 259 266 273 40 334 333 333 331 331 325 319 319 319 321 339 353 359 346 247 225 222 242 241 241 252 257 255 251 252 256 265 254 234
174 185 263 249 200 190 241 261 258 260 249 245 252 250 63 347 343 342 336 336 327 319 314 316 322 329 334 338 333 323 293 275 277 260 246 253 258 255 258 265 263 260 251 233
202 204 233 250 286 267 262 261 243 227 239 252 255 267 285 310 322 331 333 330 327 319 304 301 299 310 326 327 322 317 317 298 280 264 253 259 265 267 268 271 272 259 246 233
200 227 243 269 278 265 270 271 250 235 244 256 267 269 283 296 305 312 319 324 326 326 317 304 297 300 313 321 318 316 314 301 271 263 265 275 283 287 282 274 270 264 251 243
214 222 250 275 270 261 276 277 257 246 249 253 264 274 287 297 301 305 314 323 317 315 313 304 297 297 303 305 305 306 303 299 272 265 277 291 295 294 290 281 271 263 256 249
216 201 225 258 296 278 269 256 233 233 239 244 254 272 295 299 304 305 309 314 308 304 301 297 290 286 290 293 293 292 295 298 278 270 286 292 291 294 297 294 280 263 254 248
206 195 215 257 254 244 264 76 220 232 252 252 263 276 280 294 305 303 314 315 309 307 302 300 294 292 295 292 287 289 296 294 282 281 289 294 297 298 299 292 287 279 263 254
226 196 192 212 249 271 269 245 210 227 266 252 253 276 292 311 308 286 320 318 304 301 299 297 297 296 300 298 290 275 280 288 291 292 297 299 297 296 297 298 294 290 277 268
144 193 200 209 240 256 275 104 196 224 266 238 235 259 275 286 280 298 334 323 314 317 318 314 313 310 313 317 303 280 304 312 308 302 297 294 290 287 288 294 296 297 290 278
185 194 215 227 241 262 286 166 173 225 284 321 252 254 247 251 278 308 321 319 313 322 327 329 327 326 325 325 314 308 323 316 313 308 299 297 294 289 287 293 295 295 294 288
202 198 205 208 226 248 158 159 209 265 323 292 274 261 255 267 287 302 307 310 318 332 337 337 333 340 342 338 323 312 316 315 312 306 299 298 300 298 292 293 295 294 292 286
221 219 218 216 236 292 200 224 260 289 274 280 276 277 264 268 278 291 300 306 314 320 324 322 321 334 341 333 318 305 314 316 308 301 299 301 307 306 299 294 295 295 289 282
234 229 231 248 254 259 247 248 259 264 268 279 275 273 259 263 270 279 292 298 305 314 318 316 313 313 321 323 313 304 309 311 304 301 303 306 309 314 312 302 292 285 279 278
231 200 225 250 264 267 242 237 244 253 264 270 274 267 257 258 262 266 276 280 286 295 302 294 287 290 301 312 311 314 313 310 304 302 305 308 307 306 308 304 295 288 281 281
211 204 213 240 234 230 243 226 222 240 251 250 249 256 257 252 257 263 268 271 275 284 288 282 286 291 299 305 308 314 314 307 301 300 305 308 307 308 309 311 313 302 288 297
Height
1508 1507 1506 1507 1509 1508 1506 1505 1503 1501 1503 1504 1502 1503 1504 1506 1507 1507 1508 1509 1510 1510 1511 1511 1511 1512 1513 1514 1514 1514 1515 1517 1517 1518 1518 1519 1520 1521 1521 1522 1522 1523 1524 1524
1507 1507 1510 1510 1510 1508 1507 1505 1504 1503 1504 1504 1503 1503 1503 1505 1506 1507 1508 1508 1509 1510 1510 1510 1510 1511 1512 1513 1513 1514 1514 1515 1516 1517 1517 1518 1518 1519 1520 1521 1521 1521 1522 1522
1508 1512 1512 1511 1509 1507 1505 1505 1504 1505 1505 1504 1504 1501 1502 1505 1506 1507 1508 1508 1508 1509 1509 1509 1509 1509 1510 1511 1511 1512 1513 1514 1515 1516 1516 1517 1517 1518 1519 1519 1519 1520 1520 1520
1513 1514 1513 1510 1509 1508 1506 1507 1507 1505 1502 1502 1504 1500 1497 1501 1504 1505 1506 1507 1507 1508 1508 1508 1508 1509 1509 1509 1510 1511 1512 1513 1514 1514 1515 1515 1515 1516 1517 1518 1518 1519 1519 1518
1514 1515 1513 1511 1511 1510 1509 1509 1507 1505 1503 1505 1503 1502 1495 1500 1501 1503 1504 1505 1506 1506 1506 1507 1507 1508 1508 1508 1509 1510 1511 1512 1512 1513 1513 1513 1514 1515 1515 1516 1517 1517 1517 1517
1517 1518 1517 1515 1514 1513 1511 1508 1506 1505 1503 1505 1503 1500 1496 1499 1501 1501 1503 1504 1505 1505 1505 1506 1506 1507 1507 1507 1508 1509 1510 1510 1511 1511 1511 1512 1512 1513 1513 1514 1515 1515 1515 1515
1515 1517 1518 1518 1514 1513 1511 1507 1503 1501 1501 1499 1505 1502 1500 1500 1502 1502 1502 1503 1503 1504 1504 1505 1505 1505 1505 1506 1507 1508 1509 1509 1509 1509 1510 1510 1511 1511 1512 1512 1512 1513 1513 1513
1515 1513 1518 1518 1517 1515 1512 1510 1508 1503 1497 1495 1504 1501 1499 1503 1504 1503 1503 1503 1503 1503 1503 1503 1503 1504 1505 1505 1506 1506 1507 1507 1508 1508 1508 1508 1509 1509 1510 1510 1510 1510 1511 1510
1517 1515 1520 1520 1519 1517 1514 1512 1514 1511 1507 1506 1499 1501 1502 1503 1503 1503 1503 1502 1502 1502 1502 1502 1502 1503 1503 1504 1504 1504 1505 1506 1506 1506 1506 1506 1507 1508 1508 1508 1508 1509 1509 1509
1523 1521 1519 1520 1519 1519 1517 1516 1514 1510 1505 1497 1495 1497 1498 1500 1501 1503 1503 1502 1502 1502 1501 1501 1500 1501 1501 1502 1502 1503 1503 1504 1504 1504 1504 1504 1505 1505 1506 1506 1506 1507 1507 1507
1524 1522 1520 1519 1519 1517 1519 1518 1515 1511 1509 1499 1494 1496 1501 1503 1504 1504 1504 1504 1503 1502 1501 1500 1499 1499 1500 1500 1501 1501 1501 1501 1502 1501 1502 1502 1502 1503 1503 1504 1504 1504 1504 1505
1525 1522 1519 1519 1521 1522 1519 1517 1516 1511 1511 1508 1499 1503 1504 1505 1505 1505 1504 1503 1502 1501 1500 1499 1498 1498 1498 1499 1499 1499 1499 1499 1499 1499 1499 1500 1500 1500 1501 1501 1502 1502 1502 1502
1526 1525 1518 1512 1519 1522 1520 1519 1518 1516 1512 1506 1500 1503 1504 1505 1505 1505 1504 1503 1501 1500 1499 1498 1498 1497 1497 1497 1497 1497 1497 1497 1497 1497 1497 1497 1497 1498 1498 1498 1499 1499 1499 1499
1524 1525 1520 1512 1509 1516 1519 1518 1518 1516 1510 1505 1503 1501 1502 1503 1504 1504 1503 1502 1501 1499 1498 1497 1497 1496 1496 1496 1496 1496 1495 1495 1495 1495 1495 1495 1495 1495 1495 1495 1495 1496 1496 1496
1523 1523 1523 1521 1519 1519 1517 1516 1515 1515 1510 1506 1502 1503 1501 1502 1503 1503 1502 1501 1499 1498 1497 1496 1495 1495 1494 1494 1494 1494 1494 1493 1493 1493 1493 1492 1492 1492 1492 1492 1492 1492 1492 1492
1523 1522 1522 1521 1519 1519 1517 1514 1513 1512 1510 1507 1505 1503 1502 1502 1502 1502 1500 1499 1498 1496 1495 1494 1493 1493 1493 1492 1492 1492 1492 1491 1491 1491 1490 1490 1490 1490 1489 1490 1489 1489 1489 1489
1522 1522 1519 1512 1518 1517 1510 1508 1509 1509 1507 1506 1502 1501 1502 1501 1501 1500 1499 1498 1496 1494 1493 1492 1492 1491 1491 1491 1490 1490 1489 1489 1489 1488 1488 1488 1487 1487 1487 1486 1486 1486 1486 1486
1522 1521 1520 1515 1516 1511 1502 1507 1507 1507 1506 1505 1503 1502 1501 1501 1500 1499 1498 1496 1494 1493 1492 1491 1490 1490 1489 1489 1488 1488 1487 1487 1486 1486 1486 1485 1485 1484 1484 1483 1483 1483 1483 1483
1520 1519 1518 1515 1509 1502 1502 1505 1506 1505 1502 1502 1502 1501 1500 1500 1498 1496 1496 1494 1493 1491 1490 1489 1489 1488 1487 1487 1486 1486 1485 1485 1484 1484 1483 1483 1482 1482 1481 1481 1480 1480 1480 1480
1521 1519 1517 1515 1508 1499 1497 1504 1505 1505 1498 1498 1498 1498 1498 1498 1495 1493 1493 1492 1490 1489 1488 1487 1487 1486 1486 1485 1484 1484 1483 1483 1482 1482 1481 1481 1480 1480 1479 1478 1478 1477 1477 1477
1519 1518 1516 1512 1506 1497 1500 1503 1505 1501 1493 1496 1496 1496 1496 1496 1494 1493 1491 1489 1488 1487 1486 1486 1485 1484 1484 1483 1483 1482 1481 1481 1480 1480 1479 1478 1478 1477 1476 1476 1475 1475 1474 1474
1512 1511 1512 1509 1505 1498 1500 1501 1500 1495 1495 1494 1494 1493 1493 1492 1491 1490 1489 1487 1486 1485 1484 1484 1483 1483 1482 1482 1481 1480 1479 1479 1478 1478 1477 1476 1475 1475 1474 1473 1472 1472 1471 1471
1508 1505 1502 1502 1497 1496 1497 1496 1495 1494 1494 1493 1492 1491 1490 1489 1488 1488 1486 1485 1484 1484 1483 1482 1482 1481 1481 1480 1479 1478 1478 1477 1476 1475 1474 1473 1473 1472 1471 1471 1470 1469 1469 1468
1503 1504 1503 1500 1494 1494 1494 1494 1493 1492 1492 1490 1490 1489 1488 1487 1486 1485 1484 1483 1482 1482 1481 1480 1480 1479 1478 1478 1477 1476 1475 1474 1473 1473 1472 1471 1470 1469 1469 1468 1468 1467 1466 1466
1496 1499 1498 1494 1492 1492 1490 1490 1489 1489 1488 1487 1487 1486 1485 1484 1484 1483 1482 1481 1480 1480 1479 1478 1478 1477 1476 1476 1475 1474 1473 1472 1471 1470 1469 1468 1468 1467 1466 1466 1465 1464 1464 1464
1490 1491 1490 1485 1485 1486 1485 1485 1485 1485 1485 1484 1483 1483 1483 1482 1481 1480 1479 1479 1478 1477 1477 1476 1476 1475 1474 1473 1472 1471 1471 1470 1469 1468 1467 1466 1465 1464 1464 1463 1462 1461 1461 1461